| time (UTC) | temp F | wind direction | speed MPH | gust MPH | rain 1hr in | rain 24hr in | rain mn in | humidity % | barometer mb |
| 20260503220023 | 58 | 238 | 2.0 | 6.0 | 0.00 | 0.57 | 0.20 | 88 | 1012.8 |
| 20260503215041 | 58 | 267 | 1.0 | 4.0 | 0.01 | 0.57 | 0.20 | 88 | 1012.7 |
| 20260503214036 | 58 | 243 | 2.0 | 6.0 | 0.01 | 0.57 | 0.20 | 88 | 1012.7 |
| 20260503213053 | 58 | 244 | 2.0 | 6.0 | 0.01 | 0.57 | 0.20 | 88 | 1012.5 |
| 20260503212049 | 58 | 261 | 2.0 | 6.0 | 0.01 | 0.57 | 0.20 | 88 | 1012.4 |
| 20260503211025 | 58 | 312 | 2.0 | 7.0 | 0.01 | 0.57 | 0.20 | 88 | 1012.2 |
| 20260503210022 | 58 | 298 | 2.0 | 6.0 | 0.01 | 0.57 | 0.20 | 87 | 1012.3 |
| 20260503205019 | 58 | 288 | 2.0 | 6.0 | 0.00 | 0.56 | 0.19 | 87 | 1012.1 |
| 20260503204035 | 58 | 308 | 2.0 | 4.0 | 0.00 | 0.56 | 0.19 | 87 | 1012.1 |
| 20260503203032 | 58 | 253 | 2.0 | 8.0 | 0.00 | 0.56 | 0.19 | 87 | 1011.9 |
| 20260503202028 | 58 | 279 | 3.0 | 7.0 | 0.00 | 0.56 | 0.19 | 87 | 1011.7 |
| 20260503201024 | 58 | 278 | 2.0 | 6.0 | 0.00 | 0.56 | 0.19 | 88 | 1011.7 |
| 20260503200021 | 58 | 351 | 2.0 | 6.0 | 0.02 | 0.56 | 0.19 | 89 | 1011.7 |
| 20260503195017 | 57 | 329 | 2.0 | 4.0 | 0.02 | 0.56 | 0.19 | 89 | 1011.7 |
| 20260503194034 | 57 | 307 | 2.0 | 6.0 | 0.02 | 0.56 | 0.19 | 90 | 1011.7 |
| 20260503193030 | 57 | 282 | 2.0 | 6.0 | 0.02 | 0.56 | 0.19 | 89 | 1011.6 |
| 20260503192027 | 57 | 296 | 4.0 | 8.0 | 0.02 | 0.56 | 0.19 | 89 | 1011.6 |
| 20260503191024 | 58 | 234 | 4.0 | 13.0 | 0.02 | 0.56 | 0.19 | 86 | 1011.5 |
| 20260503190025 | 58 | 253 | 3.0 | 8.0 | 0.00 | 0.54 | 0.17 | 84 | 1011.5 |
| 20260503185036 | 58 | 277 | 3.0 | 10.0 | 0.00 | 0.54 | 0.17 | 83 | 1011.4 |
| 20260503184033 | 58 | 288 | 3.0 | 4.0 | 0.00 | 0.54 | 0.17 | 84 | 1011.4 |
| 20260503183049 | 58 | 279 | 2.0 | 8.0 | 0.00 | 0.54 | 0.17 | 84 | 1011.3 |
| 20260503182025 | 58 | 289 | 2.0 | 4.0 | 0.00 | 0.54 | 0.17 | 85 | 1011.3 |
| 20260503181022 | 57 | 244 | 2.0 | 6.0 | 0.00 | 0.54 | 0.17 | 86 | 1011.4 |
| 20260503180018 | 57 | 284 | 3.0 | 7.0 | 0.00 | 0.56 | 0.17 | 87 | 1011.4 |
| 20260503175035 | 57 | 300 | 2.0 | 8.0 | 0.00 | 0.59 | 0.17 | 87 | 1011.4 |
| 20260503174032 | 57 | 323 | 3.0 | 7.0 | 0.00 | 0.61 | 0.17 | 87 | 1011.5 |
| 20260503173048 | 57 | 297 | 3.0 | 10.0 | 0.00 | 0.62 | 0.17 | 88 | 1011.7 |
| 20260503172045 | 56 | 273 | 2.0 | 7.0 | 0.00 | 0.64 | 0.17 | 89 | 1011.7 |
| 20260503171021 | 56 | 284 | 2.0 | 6.0 | 0.00 | 0.66 | 0.17 | 89 | 1011.8 |
| 20260503131017 | 57 | 327 | 2.0 | 4.0 | 0.00 | 0.59 | 0.59 | 83 | 1012.8 |
| 20260503081030 | 60 | 327 | 3.0 | 9.0 | 0.00 | 0.28 | 0.28 | 75 | 1011.2 |
| 20260503080107 | 60 | 281 | 2.0 | 4.0 | 0.00 | 0.28 | 0.28 | 75 | 1011.1 |
| 20260503072032 | 60 | 38 | 3.0 | 8.0 | 0.00 | 0.28 | 0.28 | 79 | 1011.1 |
| 20260503071028 | 60 | 28 | 2.0 | 4.0 | 0.00 | 0.28 | 0.28 | 78 | 1011.1 |
| 20260503055019 | 63 | 293 | 3.0 | 7.0 | 0.03 | 0.30 | 0.25 | 66 | 1010.9 |
| 20260503054036 | 63 | 319 | 4.0 | 10.0 | 0.00 | 0.27 | 0.22 | 62 | 1010.7 |
| 20260503053032 | 64 | 343 | 5.0 | 9.0 | 0.00 | 0.29 | 0.22 | 61 | 1010.6 |
| 20260503052028 | 66 | 317 | 5.0 | 9.0 | 0.00 | 0.29 | 0.22 | 57 | 1010.6 |
| 20260503051025 | 66 | 315 | 4.0 | 9.0 | 0.00 | 0.29 | 0.22 | 58 | 1010.5 |
| 20260503050021 | 65 | 31 | 3.0 | 10.0 | 0.00 | 0.29 | 0.22 | 58 | 1010.6 |
| 20260503045018 | 65 | 320 | 5.0 | 14.0 | 0.00 | 0.31 | 0.22 | 57 | 1010.5 |
| 20260503044035 | 63 | 326 | 3.0 | 9.0 | 0.00 | 0.33 | 0.22 | 64 | 1010.7 |
| 20260503043030 | 64 | 269 | 5.0 | 11.0 | 0.00 | 0.36 | 0.22 | 59 | 1010.6 |
| 20260503042027 | 64 | 342 | 4.0 | 13.0 | 0.00 | 0.37 | 0.22 | 61 | 1010.7 |
| 20260503041023 | 64 | 295 | 4.0 | 11.0 | 0.00 | 0.41 | 0.22 | 59 | 1010.8 |
| 20260503040020 | 64 | 286 | 4.0 | 16.0 | 0.00 | 0.41 | 0.22 | 60 | 1010.9 |
| 20260503035042 | 65 | 354 | 4.0 | 10.0 | 0.00 | 0.41 | 0.22 | 59 | 1010.9 |
| 20260503034033 | 64 | 306 | 4.0 | 13.0 | 0.00 | 0.41 | 0.22 | 61 | 1011.0 |
| 20260503033029 | 64 | 8 | 5.0 | 15.0 | 0.00 | 0.42 | 0.22 | 61 | 1011.1 |
| 20260503032025 | 64 | 326 | 4.0 | 9.0 | 0.00 | 0.42 | 0.22 | 62 | 1011.2 |
| 20260503031022 | 63 | 213 | 3.0 | 9.0 | 0.00 | 0.43 | 0.22 | 64 | 1011.2 |
| 20260503030018 | 62 | 311 | 6.0 | 19.0 | 0.00 | 0.45 | 0.22 | 64 | 1011.3 |
| 20260503025034 | 63 | 307 | 4.0 | 10.0 | 0.00 | 0.45 | 0.22 | 63 | 1011.3 |
| 20260503024031 | 63 | 345 | 4.0 | 9.0 | 0.00 | 0.45 | 0.22 | 60 | 1011.4 |
| 20260503023048 | 64 | 306 | 5.0 | 13.0 | 0.00 | 0.45 | 0.22 | 63 | 1011.4 |
| 20260503022024 | 63 | 328 | 4.0 | 8.0 | 0.00 | 0.45 | 0.22 | 68 | 1011.5 |
| 20260503021040 | 62 | 33 | 4.0 | 13.0 | 0.00 | 0.45 | 0.22 | 70 | 1011.6 |
| 20260503020037 | 61 | 1 | 3.0 | 9.0 | 0.00 | 0.45 | 0.22 | 71 | 1011.5 |
| 20260503015034 | 62 | 48 | 4.0 | 16.0 | 0.00 | 0.45 | 0.22 | 68 | 1011.6 |
| 20260503014050 | 63 | 298 | 4.0 | 14.0 | 0.00 | 0.45 | 0.22 | 65 | 1011.6 |
| 20260503013037 | 63 | 35 | 4.0 | 10.0 | 0.00 | 0.45 | 0.22 | 66 | 1011.6 |
| 20260503012022 | 63 | 341 | 3.0 | 10.0 | 0.00 | 0.45 | 0.22 | 66 | 1011.6 |
| 20260503011018 | 61 | 328 | 4.0 | 9.0 | 0.00 | 0.45 | 0.22 | 70 | 1011.6 |
| 20260503010035 | 61 | 353 | 4.0 | 9.0 | 0.00 | 0.45 | 0.22 | 69 | 1011.7 |
| 20260503005031 | 61 | 36 | 4.0 | 14.0 | 0.00 | 0.45 | 0.22 | 70 | 1011.6 |
| 20260503004027 | 61 | 23 | 3.0 | 9.0 | 0.00 | 0.45 | 0.22 | 72 | 1011.8 |
| 20260503003043 | 60 | 8 | 3.0 | 9.0 | 0.00 | 0.45 | 0.22 | 73 | 1011.9 |
| 20260503002020 | 59 | 349 | 3.0 | 11.0 | 0.00 | 0.45 | 0.22 | 75 | 1012.0 |
| 20260503001040 | 60 | 29 | 3.0 | 10.0 | 0.00 | 0.45 | 0.22 | 75 | 1012.0 |
| 20260503000042 | 60 | 61 | 4.0 | 10.0 | 0.00 | 0.45 | 0.22 | 73 | 1011.9 |
| 20260502235029 | 60 | 72 | 4.0 | 14.0 | 0.00 | 0.45 | 0.22 | 74 | 1012.1 |
| 20260502234046 | 59 | 75 | 5.0 | 10.0 | 0.00 | 0.45 | 0.22 | 75 | 1012.0 |
| 20260502233021 | 59 | 44 | 4.0 | 13.0 | 0.00 | 0.45 | 0.22 | 76 | 1012.0 |
| 20260502232018 | 58 | 72 | 4.0 | 11.0 | 0.00 | 0.46 | 0.22 | 78 | 1012.0 |
| 20260502231035 | 57 | 75 | 3.0 | 10.0 | 0.00 | 0.47 | 0.22 | 80 | 1012.1 |
| 20260502230051 | 57 | 67 | 6.0 | 13.0 | 0.00 | 0.47 | 0.22 | 80 | 1012.0 |
| 20260502225027 | 56 | 67 | 5.0 | 15.0 | 0.00 | 0.47 | 0.22 | 82 | 1012.0 |
| 20260502224024 | 55 | 81 | 4.0 | 11.0 | 0.00 | 0.47 | 0.22 | 86 | 1011.9 |
| 20260502223020 | 54 | 74 | 4.0 | 11.0 | 0.00 | 0.47 | 0.22 | 87 | 1011.9 |
| 20260502222036 | 54 | 73 | 4.0 | 8.0 | 0.00 | 0.47 | 0.22 | 88 | 1011.8 |
| 20260502221033 | 54 | 86 | 4.0 | 8.0 | 0.00 | 0.47 | 0.22 | 89 | 1011.8 |